Regional Weather Roundup
Issued by NWS

Home | Current Version | Previous Version | Graphics & Text | Print | Product List | Glossary Off
Versions: 1 2 3 4 5 6 7 8 9 10 11 12 13 14 15 16 17 18 19 20 21 22 23 24 25 26 27 28 29 30 31 32 33 34 35 36 37 38 39 40 41 42 43 44 45 46 47 48 49

000
ASUS43 KMPX 210601
RWRMN
WEATHER ROUNDUP FOR MINNESOTA
NATIONAL WEATHER SERVICE TWIN CITIES/CHANHASSEN MN
1200 AM CST TUE FEB 21 2017


NOTE: "FAIR" INDICATES FEW OR NO CLOUDS BELOW 12,000 FEET WITH NO
SIGNIFICANT WEATHER AND/OR OBSTRUCTIONS TO VISIBILITY. N/A MEANS
CURRENT SKY AND/OR WEATHER CONDITIONS ARE NOT AVAILABLE.

MNZ060>063-068>070-210700-
   Twin Cities Metro

CITY           SKY/WX    TMP DP  RH WIND       PRES   REMARKS
TWIN CITIES    CLOUDY    41  37  86 W14       29.83R
6HR MIN TEMP:  41; 6HR MAX TEMP:  55;

ST PAUL        CLOUDY    42  40  92 W12       29.84R
CRYSTAL        CLOUDY   N/A N/A N/A W9        29.82R
BLAINE         CLOUDY    43  41  93 W10       29.82R
LAKEVILLE      CLOUDY    39  39 100 W9        29.83R
EDEN PRAIRIE   CLOUDY    40  38  93 W8        29.83R
6HR MIN TEMP:  40; 6HR MAX TEMP:  54;

SOUTH ST PAUL  CLOUDY    42  40  94 W5        29.83R
LAKE ELMO      CLOUDY    43  41  93 W8        29.82R
$$
MNZ001>005-007-008-013>017-022>024-027-028-210700-
   Northwest Minnesota

CITY           SKY/WX    TMP DP  RH WIND       PRES   REMARKS
BEMIDJI        CLOUDY    33  33  97 W13G18    29.73R WCI  24
HALLOCK        CLOUDY    34  32  93 W3        29.71F FOG
ROSEAU         CLOUDY    34  28  80 W12G18    29.69R HAZE    WCI  25
WARROAD        CLOUDY    32  28  86 W10G18    29.68R WCI  24
THIEF RVR FALL FOG       32  31  96 W10       29.73S VSB 3/4 WCI  24
CROOKSTON      CLEAR     32  32 100 S3        29.75S FOG
FOSSTON        FOG       30  30 100 SW9       29.75S VSB 1/4 WCI  22
DETROIT LAKES  CLEAR     34  34 100 SW3       29.78S FOG
MOORHEAD       CLEAR     34  32  93 S5        29.78F FOG     WCI  30
PARK RAPIDS    CLOUDY    34  31  88 W7        29.75R FOG     WCI  28
MAHNOMEN       FAIR      32  31  98 SW5       29.76S FOG     WCI  27
$$
MNZ006-009>011-018-025>026-210700-
   North Central Minnesota

CITY           SKY/WX    TMP DP  RH WIND       PRES   REMARKS
BAUDETTE       CLOUDY    34  31  88 W9        29.67R WCI  27
FLAG ISLAND    CLOUDY    34  30  86 W14G23    29.63R WCI  24
INTL FALLS     CLOUDY    35  31  85 W17G23    29.64R WCI  25
6HR MIN TEMP:  35; 6HR MAX TEMP:  43; 6HR PCP:  0.11;

WASKISH        CLOUDY    34  34 100 W10       29.71R WCI  26
BIG FORK       CLOUDY    36  32  87 W8        29.69R
LONGVILLE      CLOUDY    34  34 100 SW5       29.74R WCI  30
GRAND RAPIDS   CLOUDY    35  33  92 W10       29.73R WCI  27
CRANE LAKE     CLOUDY    36  34  93 W3        29.64R
ORR            CLOUDY    34  30  86 W7G16     29.63R WCI  28
COOK           CLOUDY    36  34  93 W13G24    29.66R
WALKER         CLOUDY    33  32  96 W12       29.74R WCI  24
$$
MNZ012-019>021-037-210700-
   Northeast Minnesota

CITY           SKY/WX    TMP DP  RH WIND       PRES   REMARKS
DULUTH         CLOUDY    39  38  96 W17G30    29.65R
6HR MIN TEMP:  39; 6HR MAX TEMP:  45; 6HR PCP:  0.24;

ELY            CLOUDY    37  37 100 W13       29.60R
HIBBING        CLOUDY    35  35 100 W9G20     29.67R WCI  28
EVELETH        CLOUDY    37  36  93 W14G21    29.66R
DULUTH HARBOR  MOCLDY    41  39  93 W21       29.67R
TWO HARBORS    CLOUDY    46  41  81 W12G17    29.60R
SILVER BAY     CLOUDY    45  45 100 W6        29.57R
GRAND MARAIS     N/A     39  38  96 CALM      29.55F
G MARAIS ARPRT HVY RAIN  41  37  87 SW6       29.54F VSB 1/2
$$
MNZ029>031-032-039>041-046>048-054>057-064-210700-
   West Central Minnesota

CITY           SKY/WX    TMP DP  RH WIND       PRES   REMARKS
FERGUS FALLS   FOG       32  32 100 S3        29.83F VSB 1/2
WHEATON        CLEAR     34  30  86 SW3       29.83F
MORRIS         CLEAR     34  34 100 SW3       29.82S FOG
ALEXANDRIA     CLEAR     34  34 100 W8        29.82R FOG     WCI  27
ELBOW LAKE     FAIR      32  32 100 CALM      29.81F FOG
WADENA         CLOUDY    34  34 100 W9        29.79R FOG     WCI  26
GLENWOOD       MOCLDY    34  34 100 W8        29.83S FOG     WCI  27
APPLETON       CLEAR     36  34  93 SW6       29.84F FOG
BENSON         CLEAR     36  32  87 W5        29.85F FOG
ORTONVILLE     CLEAR     36  32  87 CALM      29.84S
WILLMAR        FAIR      36  36 100 W5        29.86S FOG
$$
MNZ033>034-036-042>043-049>051-058-059-210700-
   Central Minnesota

CITY           SKY/WX    TMP DP  RH WIND       PRES   REMARKS
ST CLOUD       CLOUDY    37  36  96 W12       29.81R
6HR MIN TEMP:  37; 6HR MAX TEMP:  50; 6HR PCP:  0.01;

SAUK CENTRE    FAIR      33  32  98 W8        29.82R FOG     WCI  26
PAYNESVILLE    CLEAR     33  33 100 W9        29.84R FOG     WCI  26
AITKIN         CLOUDY    37  34  87 W7        29.74R
PINE RIVER     CLOUDY    34  34 100 W5        29.80R WCI  30
BRAINERD       CLOUDY    35  34  96 W8        29.78R WCI  29
STAPLES        CLOUDY    34  34 100 W7        29.79R FOG     WCI  28
LONG PRAIRIE   FAIR      34  32  93 SW10      29.81R WCI  26
LITTLE FALLS   CLOUDY    36  34  93 W7        29.81R
LITCHFIELD     CLEAR     37  36  93 W8        29.85R
BUFFALO        MOCLDY    37  35  91 W7        29.84R
MAPLE LAKE     PTCLDY    38  37  94 W7        29.84R
HUTCHINSON     CLEAR     35  34  99 W7        29.87R FOG     WCI  29
$$
MNZ037-044-045-052-053-210700-
   East Central Minnesota

CITY           SKY/WX    TMP DP  RH WIND       PRES   REMARKS
PRINCETON      CLOUDY    39  37  93 W12       29.81R
MORA           CLOUDY    36  36 100 W8G16     29.79R
CAMBRIDGE      CLOUDY    41  39  93 W6        29.78R
RUSH CITY      CLOUDY    39  36  87 W8G20     29.78R
MOOSE LAKE     CLOUDY    37  34  87 W10G21    29.71R
HINCKLEY       CLOUDY    39  37  93 W9G21     29.76R
CLOQUET        CLOUDY    37  37 100 W9G20     29.69R
MCGREGOR       CLOUDY    36  36 100 W8        29.74R
$$
MNZ071>073-080-081-089-090-097-098-210700-
   Southwest Minnesota

CITY           SKY/WX    TMP DP  RH WIND       PRES   REMARKS
MONTEVIDEO     CLEAR     37  37 100 W5        29.87S
GRANITE FALLS  CLEAR     37  36  96 SW9       29.88S FOG
CANBY          CLEAR     39  36  87 SW3       29.87F
MARSHALL       CLEAR     37  34  89 W8        29.88R
REDWOOD FALLS  CLEAR     39  36  89 W9        29.88R
OLIVIA         CLEAR     34  32  93 SW5       29.86R FOG     WCI  30
PIPESTONE      CLEAR     37  34  87 SW5       29.90R FOG
WINDOM         CLEAR     36  36 100 W7        29.90R
WORTHINGTON    CLEAR     39  36  89 SW9       29.91R
JACKSON        CLEAR     37  36  93 W9        29.90R
TRACY          CLEAR     40  37  89 W8        29.88S
SLAYTON        CLEAR     38  37  92 W7        29.90R
$$
MNZ065>067-074>077-082>085-091>093-210700-
   South Central Minnesota

CITY           SKY/WX    TMP DP  RH WIND       PRES   REMARKS
MANKATO          N/A     39  38  96 W7        29.88R
NEW ULM        CLEAR     34  34 100 W3        29.88R FOG
ST JAMES       CLEAR     37  36  93 W10       29.89R
FAIRMONT       CLEAR     42  39  89 W12       29.89R
GLENCOE        CLEAR     37  37 100 W3        29.85R
FARIBAULT      PTCLDY    39  37  93 W8        29.86R
OWATONNA       CLEAR     39  36  87 W8        29.87R
WASECA         CLEAR     36  34  93 W7        29.89R
ALBERT LEA     CLEAR     43  41  93 W8        29.87R
$$
MNZ078>079-086>088-094>096-210700-
   Southeast Minnesota

CITY           SKY/WX    TMP DP  RH WIND       PRES   REMARKS
ROCHESTER      CLOUDY    41  40  96 W18G25    29.84R
6HR MIN TEMP:  41; 6HR MAX TEMP:  52; 6HR PCP:  0.02;

RED WING       CLOUDY    45  39  81 W9G21     29.81R
STANTON        CLOUDY    42  39  90 W13       29.83R
WINONA         CLOUDY    50  45  81 W16G24    29.81R
AUSTIN         CLEAR     43  39  87 W10G18    29.86R
PRESTON        CLOUDY    42  40  91 W13       29.84R
$$
ABBREVIATIONS USED IN REMARKS
   TC - TEMPERATURES IN CELSIUS
  WCI - WIND CHILL INDEX
   HX - HEAT INDEX
  VSB - VISIBILITY
$$




USA.gov is the U.S. government's official web portal to all federal, state and local government web resources and services.